TimeEST,TemperatureF,Dew PointF,Humidity,Sea Level PressureIn,VisibilityMPH,Wind Direction,Wind SpeedMPH,Gust SpeedMPH,PrecipitationIn,Events,Conditions,WindDirDegrees,DateUTC
12:15 AM,17.6,5.0,58,30.38,10.0,Calm,Calm,-,N/A,,Clear,0,2013-01-25 05:15:00
12:35 AM,19.4,6.8,58,30.38,10.0,Calm,Calm,-,N/A,,Clear,0,2013-01-25 05:35:00
12:55 AM,17.6,6.8,63,30.37,10.0,Calm,Calm,-,N/A,,Clear,0,2013-01-25 05:55:00
1:15 AM,19.4,8.6,63,30.35,10.0,Calm,Calm,-,N/A,,Clear,0,2013-01-25 06:15:00
1:55 AM,21.2,5.0,50,30.33,10.0,East,3.5,-,N/A,,Clear,90,2013-01-25 06:55:00
2:15 AM,21.2,5.0,50,30.32,10.0,NE,3.5,-,N/A,,Clear,50,2013-01-25 07:15:00
2:35 AM,21.2,5.0,50,30.32,10.0,Calm,Calm,-,N/A,,Clear,0,2013-01-25 07:35:00
2:55 AM,23.0,5.0,46,30.32,10.0,Calm,Calm,-,N/A,,Clear,0,2013-01-25 07:55:00
3:15 AM,21.2,6.8,54,30.31,10.0,Calm,Calm,-,N/A,,Scattered Clouds,0,2013-01-25 08:15:00
3:35 AM,23.0,8.6,54,30.30,10.0,Calm,Calm,-,N/A,,Mostly Cloudy,0,2013-01-25 08:35:00
3:55 AM,23.0,6.8,50,30.29,10.0,Calm,Calm,-,N/A,,Mostly Cloudy,0,2013-01-25 08:55:00
4:15 AM,23.0,6.8,50,30.29,10.0,Calm,Calm,-,N/A,,Overcast,0,2013-01-25 09:15:00
4:35 AM,23.0,6.8,50,30.28,10.0,Calm,Calm,-,N/A,,Overcast,0,2013-01-25 09:35:00
4:55 AM,23.0,6.8,50,30.26,10.0,Calm,Calm,-,N/A,,Overcast,0,2013-01-25 09:55:00
5:15 AM,24.8,8.6,50,30.25,9.0,Calm,Calm,-,N/A,Rain,Freezing Rain,0,2013-01-25 10:15:00
5:55 AM,24.8,6.8,46,30.25,10.0,Calm,Calm,-,N/A,,Overcast,0,2013-01-25 10:55:00
6:15 AM,26.6,8.6,47,30.25,10.0,Calm,Calm,-,N/A,Rain,Freezing Rain,0,2013-01-25 11:15:00
6:35 AM,26.6,10.4,51,30.24,8.0,Calm,Calm,-,N/A,Rain,Freezing Rain,0,2013-01-25 11:35:00
7:15 AM,24.8,15.8,69,30.21,10.0,NE,3.5,-,N/A,,Overcast,50,2013-01-25 12:15:00
7:35 AM,24.8,15.8,69,30.21,10.0,NE,3.5,-,N/A,,Overcast,50,2013-01-25 12:35:00
7:55 AM,24.8,15.8,69,30.21,8.0,ENE,4.6,-,N/A,Rain,Freezing Rain,70,2013-01-25 12:55:00
8:15 AM,24.8,17.6,74,30.21,5.0,East,3.5,-,0.01,Rain,Freezing Rain,80,2013-01-25 13:15:00
8:35 AM,24.8,19.4,80,30.20,5.0,ESE,3.5,-,0.01,Rain,Freezing Rain,110,2013-01-25 13:35:00
8:55 AM,24.8,21.2,86,30.19,10.0,Calm,Calm,-,0.01,,Clear,0,2013-01-25 13:55:00
9:15 AM,24.8,21.2,86,30.19,10.0,Calm,Calm,-,N/A,,Clear,0,2013-01-25 14:15:00
9:35 AM,24.8,21.2,86,30.19,10.0,Calm,Calm,-,N/A,,Clear,0,2013-01-25 14:35:00
9:55 AM,24.8,21.2,86,30.17,9.0,Calm,Calm,-,N/A,Rain,Freezing Rain,0,2013-01-25 14:55:00
10:15 AM,24.8,23.0,93,30.17,9.0,Calm,Calm,-,N/A,,Clear,0,2013-01-25 15:15:00
10:35 AM,24.8,23.0,93,30.16,4.0,NE,3.5,-,N/A,Rain,Freezing Rain,40,2013-01-25 15:35:00
10:55 AM,26.6,23.0,86,30.16,2.0,Calm,Calm,-,0.04,Rain,Freezing Rain,0,2013-01-25 15:55:00
11:15 AM,26.6,24.8,93,30.15,1.8,Calm,Calm,-,0.02,Rain,Freezing Rain,0,2013-01-25 16:15:00
11:35 AM,26.6,24.8,93,30.15,2.0,Calm,Calm,-,0.06,Rain,Freezing Rain,0,2013-01-25 16:35:00
11:55 AM,26.6,24.8,93,30.14,2.5,Calm,Calm,-,0.11,Rain,Freezing Rain,0,2013-01-25 16:55:00
12:15 PM,26.6,24.8,93,30.14,1.8,Calm,Calm,-,0.04,Rain,Freezing Rain,0,2013-01-25 17:15:00
12:35 PM,26.6,26.6,100,30.14,1.0,Calm,Calm,-,0.07,,Clear,0,2013-01-25 17:35:00
12:55 PM,26.6,26.6,100,30.13,1.2,Calm,Calm,-,0.07,Rain,Freezing Rain,0,2013-01-25 17:55:00
1:15 PM,26.6,26.6,100,30.12,1.0,Calm,Calm,-,N/A,Rain,Freezing Rain,0,2013-01-25 18:15:00
1:35 PM,28.4,28.4,100,30.11,2.5,Calm,Calm,-,N/A,Rain,Freezing Rain,0,2013-01-25 18:35:00
1:55 PM,28.4,28.4,100,30.09,1.5,Calm,Calm,-,N/A,Rain,Freezing Rain,0,2013-01-25 18:55:00
2:15 PM,28.4,28.4,100,30.09,1.8,Calm,Calm,-,N/A,,Clear,0,2013-01-25 19:15:00
2:35 PM,30.2,30.2,100,30.08,1.8,Calm,Calm,-,N/A,,Clear,0,2013-01-25 19:35:00
2:55 PM,30.2,30.2,100,30.09,2.0,Calm,Calm,-,N/A,,Clear,0,2013-01-25 19:55:00
3:15 PM,32.0,30.2,93,30.08,2.5,Calm,Calm,-,N/A,,Clear,0,2013-01-25 20:15:00
3:35 PM,32.0,32.0,100,30.07,1.5,SW,6.9,-,N/A,,Clear,230,2013-01-25 20:35:00
3:55 PM,32.0,32.0,100,30.08,1.8,WSW,9.2,17.3,N/A,,Clear,240,2013-01-25 20:55:00
4:15 PM,32.0,32.0,100,30.08,1.8,WSW,10.4,-,N/A,,Scattered Clouds,240,2013-01-25 21:15:00
4:35 PM,32.0,32.0,100,30.09,1.8,West,6.9,-,N/A,,Overcast,260,2013-01-25 21:35:00
4:55 PM,32.0,32.0,100,30.09,1.2,SW,8.1,-,N/A,Rain,Light Rain,230,2013-01-25 21:55:00
5:15 PM,32.0,32.0,100,30.09,1.8,SW,6.9,-,N/A,,Overcast,230,2013-01-25 22:15:00
5:35 PM,32.0,32.0,100,30.09,2.0,SW,8.1,-,N/A,,Overcast,230,2013-01-25 22:35:00
5:55 PM,32.0,32.0,100,30.10,2.5,WSW,6.9,-,N/A,,Overcast,250,2013-01-25 22:55:00
6:15 PM,32.0,32.0,100,30.10,4.0,WSW,5.8,-,N/A,,Overcast,240,2013-01-25 23:15:00
6:35 PM,32.0,32.0,100,30.11,4.0,WSW,6.9,-,N/A,,Overcast,250,2013-01-25 23:35:00
6:55 PM,32.0,32.0,100,30.12,5.0,WSW,6.9,-,N/A,,Overcast,240,2013-01-25 23:55:00
7:15 PM,32.0,32.0,100,30.12,4.0,West,3.5,-,N/A,,Overcast,260,2013-01-26 00:15:00
7:35 PM,32.0,32.0,100,30.12,2.0,WSW,3.5,-,N/A,,Overcast,250,2013-01-26 00:35:00
7:55 PM,32.0,32.0,100,30.13,1.8,WSW,3.5,-,N/A,,Overcast,250,2013-01-26 00:55:00
8:15 PM,32.0,32.0,100,30.14,2.0,SW,3.5,-,N/A,,Overcast,230,2013-01-26 01:15:00
8:35 PM,32.0,32.0,100,30.13,1.8,SW,4.6,-,N/A,,Overcast,230,2013-01-26 01:35:00
8:55 PM,32.0,32.0,100,30.14,1.5,Calm,Calm,-,N/A,,Overcast,0,2013-01-26 01:55:00
9:15 PM,32.0,32.0,100,30.14,2.0,WSW,4.6,-,N/A,,Overcast,240,2013-01-26 02:15:00
9:35 PM,32.0,32.0,100,30.15,2.0,Calm,Calm,-,N/A,,Overcast,0,2013-01-26 02:35:00
9:55 PM,32.0,32.0,100,30.15,2.0,Calm,Calm,-,N/A,,Overcast,0,2013-01-26 02:55:00
10:15 PM,32.0,32.0,100,30.16,3.0,Calm,Calm,-,N/A,,Overcast,0,2013-01-26 03:15:00
10:35 PM,32.0,32.0,100,30.16,5.0,WSW,6.9,-,N/A,,Overcast,250,2013-01-26 03:35:00
10:55 PM,32.0,32.0,100,30.16,3.0,WSW,5.8,-,N/A,,Mostly Cloudy,240,2013-01-26 03:55:00
11:15 PM,32.0,32.0,100,30.16,3.0,WSW,5.8,-,N/A,,Mostly Cloudy,240,2013-01-26 04:15:00
11:35 PM,32.0,32.0,100,30.16,3.0,South,3.5,-,N/A,,Overcast,180,2013-01-26 04:35:00
11:55 PM,32.0,32.0,100,30.17,2.5,Calm,Calm,-,N/A,,Overcast,0,2013-01-26 04:55:00